Location: Frydek-Mistek
(49.6830°N, 18.3330°E)
Time: 13:58:15
(UTC+02:00)

ISS - Pass Details

Date: 22 April 2026
Orbit: 414 x 424 km, 51.6° (Epoch: 18 May)

Event Time Altitude Azimuth Distance (km) Brightness Sun altitude
Exits shadow 03:55:57 16° 169° (S) 1,164 -1.8 -15.4°
Maximum altitude 03:57:09 20° 141° (SE) 1,049 -1.8 -15.2°
Drops below altitude 10° 03:59:39 10° 93° (E) 1,504 -0.3 -14.9°
Sets 04:02:08 0° 75° (ENE) 2,375 1.3 -14.6°
